CAPE
660 673 880 938 1280 1286 1668 1827 2262 2168 2873 3272 3414 3294 3059 3595 3774 3770 3716 3680 3659 3494 3348 3178 3232 3426 3306 3106 3104 3174 3289 3327 3428 2940 3146 3091 2836 2774 2657 2516 2597 2566 2094 2460 2486 2533 2579 2830 2671 2494 2480 2394 2363 2427 2377 2339 2557 2406 1812 2055 2130 2104 1972 1841 1880 1833 1669 2188 2400 2205 1886 1712 1958 2262 2445 1976 1845 2017 1998 2234 2016 1483 1826 1896 2052
688 745 830 944 1008 1073 1324 1695 1984 2031 2704 3326 3075 3091 3196 3676 3723 3664 3648 3601 3502 3395 3378 3257 3095 3216 3264 3262 3241 3318 3450 3381 3274 3170 3140 2978 2894 2860 2797 2683 2679 2663 2307 2048 2640 2676 2592 2692 2722 2837 2802 2557 2364 2394 2267 2358 2076 2011 2172 1872 1923 1916 1796 1798 1752 1626 1675 1984 2306 2268 2042 2038 1895 2202 2193 2102 2070 2151 2260 2199 1835 1474 1826 1758 1808
675 798 1013 856 974 1150 1363 1668 2028 2094 2407 2877 2810 3425 3765 3639 3615 3510 3490 3432 3383 3465 3354 3155 3140 3265 3334 3185 3340 3340 3284 3213 3164 3079 2937 2949 2924 2727 2618 2634 2646 2531 2440 2517 2558 2718 2658 2596 2672 2701 2703 2582 2423 2329 2159 2243 2412 2166 2196 2021 1920 1974 1944 1914 1937 1958 1720 1863 1888 2036 1928 1838 1706 2024 2018 1883 2029 2132 2348 2233 1846 1618 1851 1903 1990
913 1032 788 866 994 1143 1215 1487 2067 2394 2436 2583 2931 3720 3742 3749 3710 3681 3500 3476 3554 3419 3370 3262 3267 3387 3372 3335 3356 3359 3370 3347 3149 3062 3007 2850 2794 2692 2658 2694 2630 2525 2156 2577 2668 2601 2690 2726 2580 2504 2452 2556 2394 2361 2404 2429 2406 1968 2100 2286 2126 2062 2058 2023 2130 2082 1930 2114 2028 1720 1851 2307 1963 2205 2131 2116 1862 2013 2291 2126 1862 1984 1948 1871 1810
814 1153 934 989 950 850 1167 1343 2048 2483 2706 2893 3548 3776 3697 3611 3717 3679 3538 3594 3566 3511 3473 3326 3298 3256 3358 3428 3532 3474 3329 3145 3124 3064 2896 2806 2833 2931 2820 2753 2709 2639 2466 2698 2663 2606 2639 2698 2700 2472 2552 2302 2515 2406 2429 2298 2226 2196 1940 2350 2333 2158 2244 2015 2004 1982 1894 2071 2091 1928 2224 2590 2333 1868 2142 2204 2250 2404 2168 2064 2123 2031 1998 2008 1946
1014 1060 1556 1202 861 1414 1687 2148 2416 2655 3045 3236 3426 3616 3570 3531 3462 3581 3568 3498 3436 3404 3324 3282 3386 3467 3430 3514 3481 3296 3217 3173 3126 2948 2879 2848 2814 2838 2620 2883 2408 2746 2689 2532 2585 2796 2801 2916 2950 2882 2733 2445 2297 2393 2441 2498 2350 2197 2185 2281 2131 2038 2315 2112 2081 2089 2184 2009 1905 1809 2430 2596 2178 2035 1834 2034 2091 2394 2322 1859 1977 1634 2182 2101 1917
966 1334 1451 2009 1655 1386 3073 2826 2872 2626 2975 3129 3377 3658 3608 3674 3592 3582 3537 3400 3349 3430 3346 3378 3574 3390 3434 3320 3330 3275 3164 3121 3014 2844 2829 2828 2800 2901 2823 2459 2478 2286 2476 2612 2589 2748 2818 3051 2972 2902 2910 2842 2750 2790 2638 2666 2496 2210 2210 2098 2316 2248 2315 2264 2215 2112 1913 1735 1886 2252 2570 2509 2113 1741 1888 1883 2177 2344 2099 2033 1807 1505 2090 1926 1863
1194 1339 1720 1744 1480 2350 2840 3111 3019 3098 3117 3253 3382 3498 3662 3567 3558 3547 3390 3488 3467 3372 3472 3425 3472 3523 3515 3334 3293 3236 3170 3054 2877 2889 2907 2926 2998 2957 2826 2853 3061 2714 2577 2618 2556 2586 2555 2681 2884 2819 2820 2910 2840 2740 2555 2572 2496 2465 2320 2134 2182 2436 2686 2459 2098 2004 1904 1815 1959 2217 2595 2742 2711 2116 1575 1622 1852 2212 2194 2208 2052 1770 1625 2028 2123
1280 1600 1832 1595 1600 2386 2738 2992 2984 2944 2992 2918 3254 3439 3560 3560 3501 3412 3372 3420 3371 3298 3450 3533 3512 3365 3406 3366 3294 3185 3113 3074 3060 3065 3109 2931 2871 2744 2681 2710 2654 2620 2699 2753 2516 2474 2494 2196 2607 2662 2758 2743 2572 2599 2585 2616 2486 2415 2351 2442 2393 2425 2296 2400 2191 1864 1576 1812 1963 2056 2746 2846 2364 1642 1514 1545 1896 2398 2126 2068 2104 1606 1623 1750 1678
1345 1647 1732 1666 1838 2828 2824 2942 2922 2887 2898 2866 3060 3340 3464 3460 3411 3566 3467 3313 3289 3398 3482 3560 3502 3369 3408 3398 3246 3238 3153 3244 3170 3106 2993 2736 2555 2538 2588 2655 2696 2687 2785 2671 2663 2559 2595 2502 2534 2566 2674 2559 2556 2475 2377 2518 2538 2536 2100 2260 2170 1859 2340 2413 2008 1816 1673 1837 1887 1946 2186 2153 2554 1621 1356 1537 1750 2215 2118 1783 2070 1567 1804 1624 1593
1346 1603 1725 1994 2009 2880 2441 2594 2842 2797 2812 3046 3190 3399 3431 3503 3550 3596 3593 3469 3575 3546 3612 3572 3485 3416 3350 3386 3290 3211 3196 3247 3212 3084 2904 2576 2442 2491 2558 2641 2550 2459 2391 2340 2359 2396 2527 2558 2510 2425 2447 2384 2491 2628 2408 2560 2325 2242 2321 2427 2411 2169 2264 2418 1955 1830 1783 1846 2220 2706 2080 1776 2574 2293 1758 1681 1786 1916 1861 2258 2212 2238 2082 1704 1790
1365 1602 1887 2002 2506 2914 2438 2481 2794 2773 2968 3092 3224 3272 3264 3364 3493 3520 3554 3622 3553 3566 3534 3604 3463 3420 3430 3405 3226 3148 3105 3059 2931 2783 2666 2617 2717 2773 2868 2918 2941 2748 2536 2366 2375 2496 2634 2348 2373 2479 2388 2482 2593 2691 2517 2584 2698 2367 2396 2277 2310 2366 2536 2017 2038 1812 1988 1954 2511 2596 2376 2281 2439 2124 1760 1718 1795 1749 2048 2448 2160 2063 2286 2029 1988
1355 1593 1708 2168 2447 2887 2670 2501 2740 2720 2804 3010 3148 3135 3208 3306 3404 3342 3398 3556 3653 3590 3522 3348 3337 3410 3391 3283 3156 3005 2916 2736 2802 2812 2773 2811 2858 2940 2806 2722 2791 2606 2789 2634 2436 2509 2602 2457 2373 2518 2436 2421 2617 2720 2587 2566 2744 2583 2418 2305 2177 2259 2320 1981 2098 2048 1866 1926 2557 2186 2051 2708 2458 1827 1869 1680 1643 2085 1916 2228 2134 1976 2017 2133 2012
1365 1500 1741 1749 2052 2746 2440 2470 2629 2666 2801 2902 2977 3106 3137 3153 3262 3320 3423 3677 3556 3446 3444 3323 3345 3421 3370 3171 3156 2966 2846 2711 2779 2800 2846 2636 2508 2585 2633 2650 2573 2468 2666 2722 2669 2624 2463 2618 2583 2614 2647 2527 2457 2558 2650 2532 2661 2725 2414 2305 2344 2353 2240 2048 1997 2262 2062 1998 2100 2241 2123 2376 2293 2007 1760 1420 1574 2172 2129 2150 1910 1797 1856 2005 2063
1359 1468 1555 1823 2084 2628 2302 2344 2446 2558 2860 3071 3081 3158 2974 2941 3180 3331 3472 3578 3580 3408 3353 3293 3462 3306 3264 3229 3212 2986 2808 2769 2737 2880 2874 2648 2555 2573 2499 2625 2608 2594 2670 2802 2675 2602 2566 2575 2626 2790 2697 2683 2820 2812 2895 2772 2768 2803 2757 2451 2232 2272 2420 2484 2504 2575 2247 2232 1940 1998 1977 2678 1940 1591 1794 1760 1889 2172 2158 1796 1647 1788 1852 1963 2025
1303 1358 1628 1835 1806 2054 2380 2107 2292 2424 2669 2916 3015 3017 2964 3160 3065 3238 3330 3392 3440 3493 3275 3173 3200 3186 3072 3158 3107 3064 2956 2775 2869 2955 2771 2658 2502 2418 2330 2532 2690 2520 2463 2793 2788 2630 2570 2584 2633 2618 2726 2826 2838 2743 2806 2912 2970 3012 2894 2678 2454 2495 2407 2046 2440 2652 2490 2082 2074 2044 1814 2258 2275 1736 1672 1620 1847 2238 1736 1562 1744 1654 1862 1931 1911
1334 1512 1682 1736 1804 1866 2520 2240 2395 2459 2517 2590 2726 2816 2986 3046 3002 3271 3308 3340 3373 3462 3342 3095 3005 3178 3010 3113 3128 2936 2980 2859 2680 2705 2517 2541 2411 2193 2517 2379 2809 2972 2803 2620 2846 2675 2628 2724 2906 2685 2708 2956 2939 2799 2498 3038 3136 2964 2881 2708 2378 2224 2513 2194 2370 2762 2744 2454 2272 1941 1634 2110 2229 1833 2089 2145 2253 2033 1808 2001 1692 1320 1871 1884 1962
1337 1590 1765 1782 1761 2279 2331 1956 2263 2523 2500 2538 2676 2715 3011 3194 3284 3269 3295 3302 3359 3427 3362 3103 2956 2870 2902 3184 3081 2913 2931 2846 2718 2586 2459 2320 2293 2302 2754 2573 2873 3065 2829 2829 2910 2837 2713 2792 2849 2854 2885 2961 2928 2797 2968 2929 3040 2968 2935 2703 2629 2638 2634 2180 2542 2630 2688 2512 2070 1938 1574 2110 2712 2366 1548 1887 1769 1927 2063 1928 1720 1602 1646 1689 1801
1346 1369 1628 1794 1752 1935 1900 2345 2374 2523 2368 2407 2624 2831 3013 3187 3262 3163 3259 3357 3188 3348 3322 3165 3142 3088 3035 2953 3150 2846 2864 2838 2542 2605 2541 2415 2418 2348 2764 2879 2844 2712 2939 2980 2712 2858 3020 2722 2563 2937 2971 3092 2987 2863 2693 2979 2692 2771 2793 2738 2716 2658 2595 2179 2534 2753 2969 2835 2486 1794 1768 2777 2298 2006 2245 2109 1607 2126 2106 1944 1860 1650 1251 1802 1791
1421 1581 1768 1900 1895 1823 2061 1758 2770 2334 2446 2384 2456 2480 2990 3168 3222 3270 3192 3241 3199 3204 3216 3226 3152 3091 3047 3083 3017 2728 2659 2534 2639 2378 2616 2576 2506 2258 2477 2882 2735 2599 2754 2970 2971 2892 2804 2827 2518 2444 2733 2630 2343 2567 2492 2558 2680 2856 2511 2402 2569 2658 2963 2881 3008 2959 3072 2780 2578 2202 2363 2450 2442 1732 1689 2198 1835 1938 2070 2004 1701 1678 1481 1761 1787
1372 1461 1710 1896 1866 1916 2048 1966 2181 2348 2313 2350 2432 2402 2487 3098 3216 3152 3144 3152 3092 3106 3164 3206 3125 2955 2690 2929 3077 2610 2674 2611 2753 2678 2605 3032 2871 2570 2468 2898 2640 2641 2856 3014 3018 2676 2514 2822 2654 2432 2564 2445 2034 2174 2038 2648 3030 2855 2880 2517 2919 3459 3216 3149 2644 3022 2899 2776 2888 2464 1973 2703 2465 2129 1920 1976 1986 1987 1716 1627 1957 2011 1734 1918 1800
1245 1260 1737 2241 1990 2209 2084 1744 1976 2338 2409 2414 2520 2506 2512 2621 2604 2744 2807 2896 2826 2753 2976 2796 2693 2669 2436 2708 2811 2592 2669 2811 2757 2933 2452 2585 2277 2468 2431 2481 2839 2696 2978 2834 2838 3077 2860 2563 2482 2602 2569 3056 3183 3326 3195 2813 3025 3411 3265 3001 2900 3193 3063 2756 2966 2708 2804 2880 2969 2769 2087 2626 2658 2016 2112 2050 1814 1652 1994 1644 1915 1866 1620 2005 1828
1158 1349 1512 1717 2022 2272 1983 2056 2067 2271 2271 2440 2456 2470 2527 2566 2556 2638 2664 2655 2715 2762 2703 2693 2710 2705 2708 2668 2872 2587 2838 3091 2846 2771 2826 2617 2128 2467 2378 2527 2803 2773 2938 3104 3210 3332 3401 2734 2744 3334 3464 3199 3196 3102 2866 2687 2753 2823 2982 3126 2718 2842 3013 2803 2614 2257 2485 2744 3026 2890 2868 2600 2143 2014 1790 1968 1942 2084 2110 1902 1760 1988 1902 1710 1565
1082 1279 1352 1696 1736 1887 1929 2036 2100 2208 2250 2208 2332 2296 2441 2701 2468 2568 2518 2673 2750 2805 2746 2806 2795 2728 2701 2714 2607 2776 2802 2974 2997 2960 2966 2853 2440 2789 2863 2786 2822 2899 3326 2985 2960 3069 3144 2978 3142 2848 2558 2277 2941 2744 2443 2395 2410 2162 2152 2401 2418 2672 2642 2403 2175 2162 2074 2366 2847 2638 2902 2438 2020 1780 1795 1682 2106 1916 2099 2087 1721 1585 2136 1880 1835
1241 1336 1373 1604 1820 1896 1963 2070 2132 2199 2206 2100 2264 2202 2337 2423 2366 2352 2501 2558 2531 2698 2624 2767 2739 2806 2736 2719 2590 2691 2572 2510 2543 2381 2358 2546 2939 3291 3162 3124 2740 2744 3152 2754 2413 2750 2528 2670 2536 2583 2661 2501 2521 2582 2489 2362 2175 1978 1926 1983 2243 2461 2295 2313 2194 2080 2044 2321 2428 2516 2731 2339 2114 1685 1607 1726 1656 1972 2094 2067 2043 1530 1954 1879 1969
1122 1280 1366 1578 1819 1880 1928 2022 2033 2161 2148 2162 2138 2215 2373 2362 2356 2410 2456 2460 2450 2504 2595 2570 2578 2752 2582 2486 2666 2569 2604 2435 2503 2501 2286 2416 2640 3302 3297 3321 3372 2954 3128 2624 2463 2602 2631 2666 2626 2479 2518 2448 1888 1544 2360 2347 1885 1955 1870 2299 2268 2574 2182 2044 1963 2412 2100 2294 2471 1978 2490 2828 2216 1690 1436 1701 1640 1651 1630 2048 1638 1520 1477 1794 1963
1148 1309 1390 1536 1650 1832 1960 2048 1950 2080 2099 2071 2042 2188 2258 2300 2365 2433 2436 2325 2501 2444 2438 2419 2500 2754 2662 2640 2439 2582 2480 2350 2203 2499 2441 2528 2961 3304 3371 3402 3386 3282 3380 2908 2932 2985 2755 2558 2577 2456 2390 1303 1527 1876 1960 2305 2370 1860 1512 1912 2288 2286 2193 1885 1964 2465 2241 2421 2300 1748 2005 2531 2218 1962 1956 1633 1518 1442 1599 1504 1282 1338 1508 1506 1780
1157 1254 1330 1426 1706 1698 1915 2002 2019 2093 2002 2108 2156 2070 2163 2065 2210 2472 2388 2350 2391 2334 2213 2326 2558 2665 2812 2642 2698 2484 2364 2300 2144 2337 2381 2535 2966 3187 3240 3126 3092 3124 3464 3011 2906 2870 2650 2517 2473 2434 2334 1992 1813 2302 2094 2431 2294 2136 1334 1257 1678 1944 2219 2030 1675 2285 2196 2360 2422 2407 2032 2287 2252 2028 2277 2016 1759 1390 1553 1547 1353 1358 1803 1782 1328
1083 1219 1274 1347 1450 1627 1932 1929 2007 2053 2036 2092 2134 1962 2123 2103 2130 2182 2361 2327 2314 2432 2336 2446 2542 2580 2682 2820 2842 2396 2337 2210 2267 2284 2510 2548 2766 2965 3035 2986 2996 3056 3118 2883 2856 2850 2582 2255 2211 2136 2465 2242 1814 1670 2421 2500 2000 1298 1119 878 1073 1392 1768 2081 1922 1816 1945 2104 2395 2516 2171 2435 2262 2204 2283 1923 1659 1430 1406 1449 1496 1507 1518 1680 1430
1038 993 1188 1368 1436 1640 1611 1756 1842 1918 1979 1914 2063 2049 2112 2094 2178 2360 2302 2459 2434 2366 2382 2316 2394 2467 2427 2664 2506 2418 2300 2081 2164 2285 2448 2480 2702 3074 3060 2987 2968 3210 3048 3233 3177 2738 2381 2187 2208 2180 2418 2436 2199 2146 2354 2163 1589 1241 1305 833 541 261 848 1458 1737 1534 1737 2212 2435 2684 2256 2620 2580 2070 1154 1637 1751 1792 1670 1711 1758 1702 1657 1627 1693
1096 884 1153 1262 1312 1484 1555 1724 1795 1914 1920 1842 1993 2034 2120 2072 2140 2245 2260 2327 2384 2350 2381 2224 2120 2372 2391 2583 2622 2473 2292 2238 2202 2414 2586 2509 2785 2987 2990 3004 2856 2785 2914 2994 3127 2737 2332 2224 2297 2506 2685 2620 2452 2316 2335 2103 1932 1276 1028 766 500 396 463 686 1057 1332 906 1792 2193 2773 2919 2477 1871 2335 2043 1854 1742 1479 1586 1665 1714 1676 1751 1917 1640
938 982 1134 1311 1258 1409 1546 1669 1804 1844 1861 1792 1921 1922 1966 2060 2174 2148 2144 2216 2373 2304 2203 2182 2309 2327 2424 2476 2395 2360 2558 2412 2486 2641 2677 2592 2674 2891 2968 3040 2783 2945 2865 2825 2781 2594 2428 2710 3014 3054 2983 2858 2518 2412 2262 1907 1456 759 890 722 578 348 302 520 233 921 1033 1440 2390 2683 2457 1978 2608 2219 2010 1803 1270 1655 1748 1807 1775 1964 1604 1694 1836
806 867 1144 1203 1030 1374 1430 1650 1695 1852 1858 1725 1686 1759 1925 1891 1944 1961 1968 2175 2255 2238 2065 2038 2134 2298 2410 2364 2367 2452 2456 2470 2626 2814 2856 2669 2850 3101 3002 2994 2934 2926 2964 3100 3008 2700 2498 2865 3132 3118 2995 3025 2481 2212 1778 1218 609 585 570 561 523 459 710 436 516 913 730 1299 2095 2351 2132 1934 2301 2315 1916 1879 1654 1608 1540 1892 1936 1950 1964 1733 1748
1142 1141 1115 1104 1126 1252 1388 1454 1412 1692 1707 1629 1614 1682 1754 1790 1880 1842 1864 2006 2058 2146 2056 2105 2166 2227 2284 2363 2304 2352 2494 2537 2847 3115 2844 2625 2913 3020 3085 3018 3026 3128 3052 3208 2690 2529 2346 2781 3070 2790 2568 2306 2232 2138 1413 617 456 453 303 664 682 922 533 207 607 1098 1271 1104 1524 1895 2180 2517 2868 3141 3136 2291 2133 1857 1843 2044 2017 2220 2211 1988 1612
1295 1340 1207 1210 1247 1204 1218 1354 1542 1488 1664 1658 1598 1609 1692 1556 1728 1759 1750 1907 1851 1829 1887 1986 1996 2041 2117 2229 2398 2449 2604 2865 3149 2993 2868 2834 2701 2786 3078 2982 3179 3000 2871 3118 2786 2475 2597 2896 3020 2658 2662 2222 1908 1826 1286 989 408 358 379 712 666 675 516 324 1225 1516 1554 2131 2297 2110 2209 2246 2508 3059 2979 3257 2222 1930 1794 2087 2379 2272 2178 1856 1864
1184 1330 1413 1397 1294 1324 1465 1264 1368 1426 1517 1568 1570 1523 1576 1610 1639 1696 1714 1816 1694 1775 1886 1858 1950 2110 2307 2496 2788 2934 2980 3160 3182 3198 2954 2856 2642 2683 3026 3408 3366 3048 3090 3204 2879 2492 3016 2939 2927 2564 2453 1860 1723 1506 1147 791 600 392 278 548 836 640 397 353 680 559 883 1954 2012 2238 2285 2430 2634 2940 2104 2976 3066 2474 2085 2225 2196 2145 2262 2148 1867
1158 1247 1316 1381 1441 1307 1423 1371 1298 1375 1447 1455 1592 1590 1718 1705 1754 1659 1655 1722 1681 1750 1881 1914 2058 2397 2482 2324 2830 2928 3022 3155 3196 3294 3099 2947 2903 3002 3011 3264 3307 3022 3188 3307 2768 2669 2977 2255 3002 2816 2558 2130 1544 1218 815 578 591 534 252 152 490 669 276 596 158 456 1392 1742 2287 1316 1968 2547 2910 2845 3248 2900 2725 3053 2142 2281 2182 2035 1992 1992 1774
1162 1141 1249 1300 1336 1402 1616 1595 1501 1450 1508 1584 1624 1635 1665 1666 1694 1564 1767 1686 1774 1866 1958 2067 2206 2240 2414 2414 2710 2838 2886 3114 3176 3286 3167 2974 3041 3059 3056 3276 3098 3153 3143 3042 2838 2778 2880 2574 2666 3046 2431 2071 1351 1120 777 577 320 350 150 63 547 428 456 601 1010 896 520 388 983 1960 2037 2138 2264 2420 2492 2510 2240 2356 2822 2654 2404 2043 2007 1940 1983
1254 1102 1064 1216 1248 1327 1543 1605 1701 1711 1590 1646 1702 1637 1624 1653 1574 1590 1616 1681 1724 1947 2030 2176 2137 2100 2050 2396 2826 2686 2680 3064 3181 3310 3154 3159 3187 3221 3159 3360 3027 3193 3237 2962 3138 2975 2912 2884 2547 2810 2413 1607 1418 1128 638 512 365 230 268 253 494 950 422 602 798 228 140 224 501 1440 1078 2178 2072 2366 2445 2512 2684 2726 2624 2900 2876 2468 2404 1758 1696
1406 1208 1084 1106 1196 1384 1458 1731 1753 1726 1772 1695 1548 1543 1510 1554 1510 1527 1388 1492 1642 1807 1967 2060 2041 2153 2208 2489 2728 2738 2847 3049 3315 3409 3396 3386 3280 3302 3302 3334 3154 3237 3317 3051 2901 2730 3009 3186 2918 2535 2128 1378 1446 1115 469 238 83 63 401 344 830 568 380 216 51 73 173 180 660 844 500 1459 1798 1833 1966 2242 2578 2644 2848 3075 2776 2739 2821 2200 1685
1501 1331 1147 1070 1114 1209 1396 1619 1677 1691 1816 1664 1679 1579 1548 1543 1664 1484 1370 1461 1630 1754 1875 2086 2040 2074 2311 2513 2676 2673 2962 3109 3315 3510 3426 3452 3340 3402 3398 3280 3081 3084 3296 3042 2692 2540 2636 2437 2232 2494 1814 1238 1049 522 396 64 168 152 379 312 748 1355 560 842 253 36 195 248 797 961 1260 1112 1410 1791 2298 2353 2268 2009 2188 2722 2754 2823 2948 3194 2432
1568 1475 1289 1114 1125 1081 1271 1493 1680 1706 1735 1757 1774 1824 1804 1681 1488 1483 1534 1648 1747 1770 1951 2267 2124 2135 2526 2694 2727 2680 2860 3036 3158 3519 3441 3469 3510 3408 3406 3349 3210 3165 3286 3215 3090 2766 2575 2275 2130 1894 1738 1304 1146 418 436 285 90 52 130 226 361 504 734 310 193 142 272 333 532 1131 1367 877 598 878 1348 1999 2091 2119 1766 2062 2306 1939 2117 2724 2497
1574 1524 1475 1284 1208 1182 1390 1578 1749 1718 1688 1738 1925 1984 1978 1898 1716 1802 1793 1812 1925 1996 2088 2188 2350 2250 2466 2676 2704 2824 2984 2987 3132 3317 3420 3449 3476 3571 3546 3422 3229 3166 3180 3116 2824 2762 2528 2283 2156 2006 1636 1350 988 760 880 410 38 167 428 128 69 49 332 212 143 241 176 442 606 749 982 745 1167 1207 1210 776 1032 1419 1854 1776 1752 1809 1908 1804 1575
1531 1525 1507 1543 1530 1441 1486 1704 1835 1761 1764 1821 1914 2005 2110 2212 2115 2210 2142 2093 2275 2275 2389 2522 2540 2390 2404 2588 2746 2886 2993 2961 3009 3209 3420 3470 3575 3586 3470 3357 3281 3184 3190 2967 2866 2686 2592 2335 2093 2025 1954 1501 1000 777 806 590 146 92 46 53 110 0 20 55 93 272 168 438 515 598 1064 946 1120 1546 1190 591 409 1223 1636 1777 1640 1570 1699 1774 1484
1505 1543 1542 1541 1531 1602 1728 1829 1866 1930 1932 1920 1860 1970 2064 2135 2107 2081 2105 2200 2235 2314 2345 2264 2383 2538 2434 2640 2785 2923 2999 2949 3061 3253 3393 3711 3708 3563 3466 3362 3300 3303 3164 2956 2879 2640 2568 2312 2330 2206 2008 1578 1073 611 824 528 475 515 212 111 35 18 3 114 3 310 114 263 364 545 1194 923 495 1142 1187 1228 986 888 970 1666 1946 1621 1568 1736 1564
1564 1592 1574 1547 1589 1704 1800 1882 1936 2047 2052 2076 1958 2031 1997 1960 1964 1793 1712 1844 1975 2077 2056 2082 2222 2434 2356 2229 2735 2827 2839 2940 3113 3322 3446 3657 3801 3607 3524 3366 3336 3365 3275 3065 2924 2857 2656 2469 2454 2374 2036 1736 1141 726 358 1119 549 758 423 370 348 100 68 310 104 213 262 177 422 493 894 594 772 986 1241 1009 711 541 742 1103 1588 1873 1921 1628 1311
1567 1578 1610 1637 1716 1768 1848 1954 2012 2130 2141 2172 2100 2096 2009 2042 2053 1869 1788 1861 1972 2090 2251 2301 2448 2642 2480 2621 2808 2868 2970 2986 3044 3330 3459 3660 3752 3764 3659 3500 3378 3405 3325 3242 3059 2856 2449 2619 2526 2231 2160 1663 1060 863 377 757 811 822 285 138 202 356 94 115 52 110 130 310 191 199 256 427 534 594 536 311 120 174 449 793 987 984 1739 1778 1597
1578 1602 1636 1686 1867 1982 2020 1955 1941 2032 2166 2280 2288 2222 2124 2181 2199 2039 2030 2110 1966 2318 2553 2614 2545 2728 2668 2618 2690 2925 3086 3124 3080 3444 3562 3650 3717 3890 3827 3605 3533 3350 3342 3290 3154 2902 2581 2710 2405 2314 2060 1618 1130 832 397 248 394 702 292 335 314 334 602 190 112 30 116 74 316 145 103 237 426 201 95 98 55 61 438 863 932 1061 879 1627 1812
1519 1602 1665 1767 1950 2105 2140 2082 2089 2129 2268 2329 2366 2351 2299 2317 2299 2205 2213 2181 2176 2307 2439 2333 2484 2555 2550 2758 3001 3046 3371 3380 3368 3499 3566 3615 3658 3808 3826 3315 2969 2910 2887 3264 3094 2842 2926 2830 2491 2111 1790 1568 1141 818 681 851 274 392 770 646 288 295 196 186 374 130 46 15 40 149 212 145 215 262 380 181 203 454 218 340 864 800 815 964 1101
1534 1650 1697 1706 1859 2042 2130 2185 2171 2173 2261 2354 2421 2485 2418 2450 2362 2268 2238 2261 2186 2251 2134 2319 2390 2624 2598 2822 3095 3280 3220 3425 3483 3546 3640 3596 3698 3712 3724 3281 2918 2834 2870 3220 3225 2995 2847 2797 2650 2391 1915 1690 1214 880 629 774 620 410 420 848 366 243 183 147 72 56 34 66 57 32 42 155 140 149 303 440 352 286 265 290 339 240 470 713 678
1462 1550 1656 1634 1682 1859 2054 2164 2186 2217 2270 2349 2420 2516 2448 2385 2384 2378 2316 2274 2310 2182 2219 2315 2407 2648 2589 2718 2974 3199 3236 3270 3280 3491 3460 3383 3514 3638 3279 2942 2875 2847 2886 3397 3251 3017 2814 2651 2511 2441 2134 1750 1368 1014 834 935 984 1084 703 578 359 108 150 48 87 18 17 30 9 0 0 0 0 24 210 122 588 470 998 938 280 90 494 401 578
Wind_Speed
12 8 8 5 3 6 9 5 5 6 7 5 6 6 8 8 8 9 9 9 9 9 10 10 10 10 9 8 8 8 7 6 6 6 6 6 6 7 7 8 8 7 5 5 5 5 5 6 7 6 5 5 5 5 5 5 5 4 2 1 1 1 2 2 3 3 3 4 5 5 6 3 4 4 4 6 7 6 7 6 3 4 7 8 8
7 6 6 4 3 7 9 9 8 7 5 6 7 8 8 8 9 10 10 9 9 10 9 9 10 9 9 8 8 8 6 6 5 5 5 5 5 5 6 6 6 5 5 5 5 5 6 6 6 5 4 5 5 6 6 5 5 4 2 2 2 2 2 2 2 2 2 3 3 4 3 3 1 3 4 5 5 5 5 3 2 4 7 8 7
4 7 6 6 5 6 6 7 8 6 7 9 10 9 8 9 9 9 9 9 9 9 9 10 10 9 9 9 8 7 6 5 5 5 4 4 4 3 3 3 4 3 3 4 4 4 4 4 5 5 4 5 5 5 7 4 5 5 2 2 2 3 3 3 3 2 2 2 3 3 2 4 5 4 3 3 4 5 5 2 3 6 7 7 6
6 7 7 8 8 7 8 5 8 9 12 12 10 9 9 9 9 9 9 8 9 9 10 11 10 10 10 9 8 6 5 4 3 3 3 3 3 3 2 2 2 2 3 3 3 3 3 5 6 5 4 3 3 4 5 6 5 5 3 2 1 1 2 2 1 1 2 2 1 3 3 3 3 2 3 3 4 4 3 2 3 6 6 7 7
6 7 7 10 10 11 12 12 13 13 12 10 9 8 8 8 9 9 9 9 10 10 10 11 11 10 9 8 6 5 4 4 3 3 3 3 3 3 2 1 1 1 1 2 2 1 2 4 5 4 3 3 3 3 4 4 4 6 4 3 1 1 2 2 2 1 3 4 4 5 3 2 3 0 1 2 2 3 3 2 2 3 5 6 6
5 6 6 8 11 13 18 16 14 12 11 10 9 8 9 9 9 9 9 10 10 10 10 10 9 8 8 6 5 5 4 3 3 3 3 3 3 3 2 2 1 1 1 1 1 1 2 3 3 3 3 3 2 2 3 3 3 3 3 1 1 2 3 3 2 3 3 4 4 5 4 3 3 2 3 1 1 2 2 2 1 2 4 5 6
6 5 5 6 6 8 7 9 10 11 11 10 9 9 9 9 9 9 9 9 9 10 9 9 8 7 5 5 5 5 4 3 3 3 3 2 2 2 1 2 2 2 2 2 1 0 1 1 2 2 2 3 2 2 3 3 3 3 2 2 2 1 1 2 2 2 2 3 5 5 4 3 4 3 2 3 2 1 2 1 1 3 4 5 4
6 5 5 5 4 4 5 5 8 9 9 9 9 9 9 9 9 8 9 9 9 10 9 8 8 6 5 5 5 5 4 4 4 3 2 1 0 1 2 2 1 2 2 2 1 1 1 0 2 2 3 3 2 2 2 3 2 2 2 2 2 2 0 0 1 1 2 3 4 5 4 4 4 2 2 7 4 0 2 2 3 4 5 6 6
8 7 6 6 4 5 4 6 8 9 9 9 9 8 8 8 8 8 8 9 10 10 9 9 8 7 6 7 7 6 6 6 5 4 2 1 1 2 2 2 2 2 2 2 1 1 0 0 2 2 2 1 2 2 2 1 1 1 3 5 3 2 0 1 1 2 2 3 3 3 3 4 4 3 1 9 4 1 2 2 3 4 7 7 7
9 8 8 7 6 6 6 7 8 9 9 9 8 8 7 8 8 8 9 10 11 10 10 10 9 9 9 9 8 8 8 6 5 3 1 0 1 2 2 3 2 2 2 2 1 1 2 1 0 1 1 2 2 2 1 1 1 1 3 6 4 5 3 1 1 3 2 2 2 1 1 2 4 4 3 4 9 3 3 5 7 6 4 5 9
10 8 9 8 9 8 11 11 10 9 9 8 7 7 8 8 8 9 10 11 11 10 11 10 10 10 10 9 9 9 8 6 4 2 1 0 1 2 2 3 4 3 2 2 2 2 2 2 2 1 1 1 2 2 1 1 2 2 3 5 4 3 4 3 1 3 3 2 2 2 0 1 4 4 2 1 5 5 5 6 6 5 6 6 5
10 10 10 9 10 9 12 12 11 10 8 7 7 8 9 9 10 10 10 10 10 11 11 11 11 11 11 9 9 9 8 6 5 3 2 0 1 3 3 3 4 4 4 3 3 3 3 2 2 1 1 2 3 3 2 2 1 1 1 2 2 3 4 3 3 3 3 4 3 4 2 1 2 4 4 3 5 7 6 7 6 6 6 7 8
11 10 9 9 11 10 11 12 11 9 8 7 8 9 10 10 11 11 10 10 11 12 12 11 11 11 10 9 9 9 8 7 5 4 3 3 3 4 4 4 4 4 4 4 4 4 4 3 2 2 1 2 2 1 2 2 1 1 2 1 1 3 3 3 3 4 4 5 6 5 2 3 2 4 5 8 9 7 6 6 6 6 7 8 8
12 11 11 11 9 11 12 11 9 8 8 8 9 9 10 11 11 11 10 11 12 12 11 11 10 10 9 8 9 9 8 7 5 5 4 4 6 6 6 6 6 5 4 4 4 4 4 3 1 0 0 1 0 1 1 0 0 1 1 2 1 3 5 2 3 5 5 5 6 5 4 3 3 1 4 3 3 5 6 7 7 7 7 8 8
14 14 12 10 9 9 13 11 9 9 8 8 9 10 11 11 11 10 10 11 12 11 11 10 10 9 8 8 9 9 8 7 6 6 7 7 8 8 9 8 7 5 3 3 4 4 4 3 2 1 2 3 4 4 5 5 4 2 2 0 3 2 3 2 3 5 6 6 6 4 4 3 2 4 3 2 1 3 4 4 4 7 7 8 9
15 15 13 11 10 7 8 10 10 10 9 10 10 11 11 11 11 11 11 11 12 11 10 9 9 9 8 8 9 9 8 7 7 8 8 9 10 10 10 9 7 6 5 5 5 5 6 5 5 5 6 6 6 7 7 8 7 6 5 4 2 2 3 1 3 4 6 7 6 5 4 3 2 2 1 1 3 2 4 3 6 6 7 9 10
15 15 14 12 11 8 7 8 9 11 11 11 11 11 10 11 12 12 12 11 11 10 10 10 9 9 8 9 10 10 8 8 9 9 10 12 11 10 10 11 10 8 8 7 7 8 9 9 9 10 10 9 9 10 9 9 8 7 6 6 5 4 4 4 0 2 5 7 6 6 6 5 5 0 6 6 3 2 2 3 4 6 7 9 9
16 15 13 10 10 8 6 8 9 9 9 10 10 10 10 11 12 12 12 11 11 11 10 10 10 10 10 11 12 11 10 10 11 11 12 13 14 12 13 14 14 10 9 9 9 9 10 12 12 12 12 11 11 10 10 10 9 8 8 8 5 4 5 7 4 1 2 4 5 5 5 9 10 6 2 4 3 3 2 1 2 5 5 7 8
15 15 13 10 9 8 7 6 9 9 9 9 9 9 11 12 13 13 12 11 11 12 11 11 11 12 12 14 13 12 12 12 14 14 15 16 15 16 15 16 15 12 11 11 11 11 11 12 13 12 11 11 11 11 11 11 10 9 9 9 8 7 6 8 6 4 2 2 3 4 6 11 8 11 11 8 4 4 2 1 1 2 3 6 7
13 13 11 8 7 8 6 7 8 9 9 9 9 10 12 13 13 13 13 13 13 13 12 11 12 13 15 15 15 14 14 15 16 17 17 18 17 19 15 18 14 13 12 12 12 12 12 11 10 10 10 7 8 11 11 13 9 9 9 7 9 9 10 9 8 7 5 4 3 1 7 6 8 7 6 9 5 2 3 2 2 1 4 4 5
10 12 9 7 7 7 7 7 8 9 9 9 10 11 12 13 13 14 14 14 14 13 12 12 13 15 17 16 16 16 16 17 18 18 18 18 18 19 17 17 16 14 13 12 10 10 10 10 8 8 8 6 6 10 11 14 8 8 8 9 9 10 9 10 10 9 9 7 6 2 5 2 4 7 5 7 8 7 3 3 2 2 3 5 5
12 10 9 7 6 6 8 9 8 9 9 9 10 11 12 14 14 15 15 15 14 14 13 14 14 15 17 16 16 15 16 17 18 18 18 17 16 18 18 17 15 14 12 10 10 9 9 8 8 7 6 7 7 11 11 9 7 8 7 9 10 9 9 9 9 10 10 10 9 3 4 3 2 5 4 4 6 9 9 4 4 3 6 3 5
11 8 7 8 6 6 8 8 8 8 9 10 10 11 12 13 14 15 15 15 15 15 14 14 16 16 16 16 15 16 15 16 16 17 18 17 17 17 17 15 14 13 12 10 9 10 9 9 7 6 7 9 11 9 9 9 8 7 8 9 8 9 8 9 9 9 9 9 10 5 6 5 4 6 4 1 3 5 9 8 3 5 4 4 3
12 8 7 5 7 6 7 7 7 8 9 10 10 11 12 13 14 15 15 16 15 15 15 15 15 16 16 16 15 15 15 15 15 17 18 16 13 15 15 15 13 11 13 11 9 8 10 9 8 10 10 10 9 9 8 8 8 7 7 9 8 8 9 8 8 8 8 8 8 7 7 7 6 2 4 2 4 2 4 7 8 5 4 4 4
9 6 5 5 7 6 6 6 7 8 10 10 10 11 12 14 14 15 16 16 16 16 15 15 15 15 15 15 15 14 15 15 15 16 16 15 14 14 13 12 12 11 11 10 10 9 10 9 9 9 8 9 8 7 8 7 6 6 7 7 8 9 10 9 9 8 8 8 8 9 8 8 8 6 4 4 6 6 3 1 2 2 4 4 5
7 5 5 5 7 5 6 6 7 9 10 10 10 10 12 14 14 15 16 16 16 16 16 16 15 15 15 15 14 14 14 14 15 15 15 14 14 13 12 11 11 10 9 9 9 9 9 8 8 8 7 7 7 6 9 7 6 5 6 7 8 9 10 9 9 9 9 9 8 10 9 8 10 9 10 10 4 7 7 5 2 4 4 6 6
7 4 4 4 5 6 6 6 7 8 10 10 10 11 12 13 14 15 15 16 16 16 16 16 16 15 14 14 14 14 14 14 14 14 15 14 14 13 12 12 11 10 8 9 7 7 8 8 7 7 5 4 6 6 6 9 5 4 5 6 7 9 9 9 9 10 9 9 8 11 10 12 12 13 14 13 6 7 9 6 5 1 4 2 4
5 5 4 4 4 5 5 6 7 8 9 10 10 11 12 14 15 14 15 15 16 16 16 16 15 14 14 14 14 15 14 14 13 14 14 14 14 13 12 12 11 10 8 8 7 7 7 7 7 6 4 5 6 5 5 7 5 4 3 3 6 7 8 8 8 9 9 10 9 10 14 14 13 12 13 13 9 12 11 3 5 6 5 3 4
6 5 3 5 6 5 5 7 8 8 9 10 11 12 12 14 14 15 14 14 15 15 15 15 15 14 13 14 14 14 14 14 13 13 13 14 13 13 12 11 11 10 8 7 7 7 7 7 6 6 5 5 5 5 4 5 6 4 3 3 4 6 7 8 8 9 9 9 10 10 13 13 13 12 11 11 10 10 10 12 10 8 10 7 4
8 6 5 4 4 5 6 8 8 8 9 10 12 12 13 14 14 14 13 13 14 14 14 14 14 14 13 14 14 15 14 13 13 13 13 13 13 12 12 11 10 9 8 7 5 5 5 5 5 6 5 6 6 5 5 5 5 3 3 3 3 3 4 6 7 8 8 9 9 9 13 12 13 12 13 13 12 12 11 11 11 11 12 11 8
6 5 4 4 3 5 6 7 8 9 10 11 12 12 13 13 13 13 13 12 12 12 13 14 14 14 14 14 15 15 14 14 13 13 12 12 12 12 11 10 10 8 7 6 4 4 4 4 5 5 6 6 6 5 5 5 4 4 3 3 2 3 3 4 6 7 7 8 8 9 11 13 14 16 16 12 15 15 14 11 11 12 12 12 11
7 6 3 3 4 6 6 7 8 8 10 11 11 13 13 13 12 12 12 12 12 12 13 13 14 14 15 15 15 15 14 14 14 13 13 12 12 11 10 9 8 7 7 6 4 3 3 3 4 4 4 5 5 6 4 4 3 3 4 4 3 3 2 3 4 4 5 6 8 9 10 11 10 12 10 14 16 17 16 14 12 11 13 13 12
6 6 4 4 6 5 6 7 8 8 10 11 11 12 13 12 12 12 12 11 12 12 13 13 14 14 15 15 15 15 15 14 14 13 12 12 11 10 9 9 8 7 6 5 5 4 4 4 4 4 4 4 4 3 4 2 2 2 4 4 3 3 2 3 3 4 3 6 7 8 9 9 11 13 17 16 17 17 16 16 15 14 14 12 9
4 4 5 5 4 5 7 7 8 9 9 10 11 12 12 12 12 12 12 11 12 13 13 14 14 14 15 15 15 15 15 14 13 12 11 11 10 9 9 9 8 7 6 6 6 6 5 4 3 4 4 3 3 3 3 1 2 2 2 4 3 3 3 4 4 4 5 5 6 8 8 8 8 9 10 14 16 16 15 15 16 16 14 10 7
5 4 4 4 6 5 6 8 8 9 8 9 10 11 11 11 11 11 11 11 12 13 14 14 14 14 14 14 14 15 15 13 12 11 10 9 9 10 10 9 8 8 8 8 7 7 7 7 6 5 4 4 3 3 2 4 1 2 4 4 4 4 5 5 4 5 4 4 5 7 7 7 7 8 8 9 14 16 15 16 16 17 15 12 11
4 4 3 2 4 5 5 7 7 8 8 9 9 10 10 11 10 10 10 10 11 13 13 14 14 14 13 12 12 12 12 11 10 9 8 9 10 10 10 8 8 9 9 8 8 8 8 7 6 6 4 3 3 3 3 3 3 3 4 5 6 5 6 5 4 4 4 4 5 6 7 7 7 7 7 8 8 12 15 15 15 16 14 12 12
4 4 4 2 2 5 6 6 6 7 8 8 9 9 10 9 9 9 9 10 11 12 12 13 13 13 12 12 10 10 11 10 9 8 8 9 10 10 10 9 9 10 10 9 9 8 8 7 6 5 4 4 4 3 3 3 4 4 3 6 8 6 6 5 4 4 4 3 5 6 6 7 8 8 8 8 8 9 15 15 14 13 12 11 12
4 5 4 2 3 3 4 6 6 6 7 8 8 9 9 8 8 9 9 10 11 11 11 11 12 12 12 11 10 10 10 9 8 8 8 9 9 10 10 9 10 11 10 10 9 8 8 8 7 7 6 6 5 4 4 3 3 4 4 nan 7 7 7 6 5 4 4 5 6 6 6 6 7 7 7 7 8 8 9 15 13 11 11 10 10
5 4 4 3 2 2 3 4 5 5 5 7 7 8 8 8 8 9 10 11 12 12 11 11 11 11 12 11 9 9 9 9 8 8 8 8 9 10 11 11 11 11 11 10 9 9 9 9 9 9 8 7 6 6 5 5 4 4 5 5 6 7 8 8 6 4 4 5 6 7 7 7 7 8 8 8 9 9 9 9 11 10 10 10 9
5 5 3 2 3 2 2 2 3 3 4 6 6 6 7 7 7 8 10 11 11 11 11 11 11 10 10 10 9 9 8 7 7 7 8 9 9 10 11 11 12 11 11 11 11 11 12 12 12 11 10 9 9 9 9 7 nan nan 5 6 6 7 8 7 nan nan 4 5 6 7 8 9 9 9 9 9 9 10 10 11 11 11 10 12 9
4 2 2 1 3 4 3 4 3 2 3 4 5 5 5 6 6 7 8 8 10 11 11 11 10 10 9 9 8 8 7 7 7 7 8 9 9 9 10 11 12 12 11 11 12 12 12 12 12 12 12 11 11 11 9 nan 6 7 7 8 8 6 7 6 6 nan 5 6 6 7 9 9 10 11 12 12 11 11 11 11 11 11 12 12 13
3 2 2 1 2 4 4 3 2 1 2 2 3 4 4 4 4 5 6 7 8 9 10 10 10 10 8 7 7 7 7 6 6 8 9 9 9 10 11 11 12 11 11 10 11 12 13 14 14 15 14 15 14 13 11 11 nan nan 8 10 9 8 7 7 7 7 6 6 7 8 8 9 11 12 13 14 14 13 13 13 12 13 13 14 14
3 2 2 2 2 3 3 2 1 1 3 2 1 2 3 3 3 5 4 6 8 8 9 10 9 8 7 6 6 6 5 6 7 8 9 10 10 10 11 11 12 11 10 11 12 14 14 15 16 18 17 16 17 16 17 16 nan 9 6 9 nan nan 10 10 10 8 7 7 8 9 8 9 11 13 13 14 15 15 15 15 15 14 14 13 15
4 3 3 4 2 2 2 2 1 2 3 4 3 1 0 1 3 5 5 6 7 8 9 10 9 7 6 4 4 5 5 6 7 9 9 10 11 11 10 10 10 10 10 11 12 14 15 15 16 17 17 17 18 17 17 17 16 nan nan nan 8 nan nan nan nan 9 8 9 9 10 9 9 11 12 12 13 15 16 16 17 17 16 15 14 15
2 3 4 4 4 4 3 2 2 4 4 4 4 3 2 1 2 5 7 8 10 9 9 8 7 5 4 3 3 3 4 5 6 8 10 11 11 11 11 10 9 9 9 10 11 13 16 16 15 14 16 17 16 16 15 16 16 13 13 13 nan nan nan 11 nan 9 9 12 12 11 11 9 10 11 11 12 13 14 16 18 17 17 17 17 17
3 4 4 5 4 5 4 3 3 4 5 5 5 3 3 3 2 1 4 5 6 5 5 4 4 2 2 2 1 1 3 5 6 8 10 11 11 11 11 9 8 8 8 8 9 11 15 16 15 13 14 17 16 15 15 14 15 15 15 13 11 nan nan 12 13 13 10 9 11 11 11 11 9 10 10 11 12 13 15 16 17 17 17 17 18
5 4 5 5 5 5 4 3 3 3 3 4 6 4 4 3 5 3 0 1 2 5 5 4 3 3 2 1 2 2 4 5 7 8 10 12 12 11 10 9 7 7 7 7 8 12 14 16 14 13 13 14 16 15 16 16 15 15 16 16 15 15 nan 16 nan 12 14 12 10 12 14 12 11 10 10 9 11 11 13 14 16 16 18 18 19
5 4 5 5 4 4 2 2 2 1 2 3 6 6 5 5 5 4 2 1 0 4 5 5 5 5 3 2 2 3 6 7 8 9 11 12 12 12 10 8 6 5 5 6 7 10 12 13 13 13 12 13 15 14 15 16 17 16 17 17 17 15 15 15 14 nan 12 nan 14 12 11 12 13 12 nan nan nan nan 11 12 13 15 16 18 19
4 5 4 3 3 3 2 2 2 1 1 6 6 7 6 6 6 5 3 2 2 4 7 7 7 5 3 4 3 4 6 8 9 10 11 13 13 12 11 8 7 6 6 5 6 9 12 12 12 11 12 12 13 13 14 15 17 17 17 17 17 17 17 17 16 15 nan nan nan 16 15 13 11 12 13 13 13 13 13 13 13 13 15 17 18
6 5 4 4 4 3 2 1 3 1 1 4 5 6 6 7 6 5 5 5 4 4 6 7 7 7 4 4 5 5 6 7 9 10 11 13 13 13 12 10 7 6 5 5 6 8 10 11 11 11 11 12 11 13 16 16 16 16 17 17 18 17 17 18 nan nan nan nan nan nan nan 16 15 13 13 14 15 15 15 14 13 14 14 15 17
3 3 3 2 2 2 1 1 3 1 1 3 4 5 6 6 6 5 5 5 5 6 7 7 7 7 6 5 6 6 6 7 8 10 11 12 13 14 12 10 6 5 5 6 5 7 9 10 10 10 10 11 11 14 16 17 17 17 17 18 18 18 17 nan nan nan nan nan nan nan nan nan nan nan 15 13 13 15 16 15 15 nan 14 14 15
Wind_Direction
102 98 82 85 323 327 324 326 342 31 38 354 339 338 339 333 333 343 349 351 350 351 352 356 0 3 3 2 0 0 355 347 343 335 329 314 306 305 311 320 332 336 327 307 297 290 289 283 279 279 286 292 300 304 309 304 297 291 281 255 257 286 292 299 300 304 299 296 278 274 291 296 275 292 296 289 281 284 286 288 278 221 206 210 212
69 70 68 74 340 333 332 335 4 16 46 348 346 347 343 338 343 345 346 347 345 346 348 353 356 357 359 0 358 353 345 341 341 337 326 312 303 305 314 325 326 321 314 303 274 257 253 261 270 273 264 274 275 280 283 287 293 285 287 273 252 250 250 256 262 286 285 300 295 276 260 255 8 313 286 278 282 289 289 280 226 187 193 213 214
38 46 58 48 10 345 345 4 14 350 20 359 353 345 338 344 344 340 340 340 341 342 345 353 354 356 358 355 351 342 338 342 342 331 315 304 303 306 316 326 319 318 289 280 261 238 234 236 246 257 258 250 259 269 279 290 305 303 294 268 244 243 244 231 213 200 220 228 289 297 327 310 15 324 310 299 288 295 296 284 209 201 196 213 214
18 46 68 33 39 8 353 9 38 2 355 354 348 341 341 343 335 329 332 335 340 344 351 353 354 357 354 350 340 333 335 338 329 313 303 312 318 330 343 329 322 308 295 269 252 236 228 231 240 243 264 277 278 286 298 296 307 303 312 308 250 230 234 234 227 172 186 200 183 16 72 44 21 2 337 298 299 301 297 281 219 215 219 202 211
8 40 31 30 13 10 3 11 25 346 349 350 343 341 338 334 326 326 331 337 341 348 353 354 354 355 351 342 331 327 330 333 326 313 320 340 345 356 1 336 339 336 316 305 285 257 234 235 244 257 254 273 297 287 279 284 295 305 345 326 10 153 196 196 194 236 192 178 158 95 116 100 88 339 175 240 262 277 288 278 249 216 211 212 214
17 41 51 21 8 1 359 357 345 339 344 344 344 341 333 327 326 329 333 339 344 353 358 357 359 356 346 332 326 332 340 341 332 327 335 354 2 3 5 20 58 28 31 329 322 311 259 232 229 244 247 250 254 276 284 279 285 295 286 332 9 140 162 164 199 220 217 193 123 120 141 133 112 123 89 98 213 249 276 271 180 190 207 217 216
8 37 40 54 38 346 340 334 335 338 340 345 344 336 328 324 329 332 337 344 355 2 4 5 5 358 346 336 342 351 356 352 350 355 356 5 10 15 50 46 22 28 43 34 27 251 254 238 211 232 236 220 215 236 261 265 255 249 258 257 214 173 164 180 201 221 217 115 133 129 132 122 83 84 54 116 128 235 257 235 170 181 200 212 219
5 24 33 53 45 357 348 343 342 339 340 343 342 332 324 326 331 337 347 357 8 10 10 11 10 9 1 7 9 11 14 16 20 20 19 26 39 29 48 68 73 60 67 75 133 216 271 269 169 190 202 193 188 188 225 240 231 231 240 235 265 232 236 3 229 198 169 134 139 143 144 127 136 137 193 117 91 170 219 194 168 181 182 190 211
356 4 33 40 34 1 4 355 348 338 339 342 337 328 325 333 343 349 358 7 12 13 13 13 16 14 16 24 20 20 27 31 31 26 25 57 116 121 119 108 83 81 87 97 126 181 280 217 187 186 187 174 197 205 223 234 237 251 248 242 223 265 274 343 339 29 76 123 117 140 152 149 131 180 34 71 84 156 210 182 173 185 196 180 193
1 14 34 48 32 13 10 356 348 340 336 338 334 331 336 345 356 1 8 13 15 12 17 17 19 19 24 26 23 24 31 36 31 18 12 95 142 142 138 127 111 100 107 118 119 140 154 184 229 193 199 190 203 228 266 296 289 299 290 276 218 219 241 264 16 107 94 84 109 125 164 167 170 141 113 153 125 152 161 160 176 184 172 187 194
6 27 37 34 5 17 2 351 345 340 338 339 340 343 351 358 7 10 12 14 14 18 22 23 23 25 27 26 27 31 35 40 41 23 353 253 209 196 180 153 130 121 138 132 134 160 155 164 160 182 212 219 212 210 239 262 293 300 311 315 299 254 251 255 100 103 111 91 88 112 112 158 173 166 134 209 110 142 186 186 194 201 206 209 216
11 21 28 22 3 21 2 351 345 342 343 347 351 354 358 6 13 14 14 15 18 24 28 28 26 29 29 29 33 37 39 42 47 45 46 101 194 201 189 165 151 150 147 128 134 144 149 151 171 189 208 214 219 223 228 243 221 243 287 315 301 261 252 256 164 160 114 96 104 109 100 153 179 190 186 196 167 170 186 180 195 203 206 212 219
11 15 15 10 7 12 6 354 346 347 354 359 1 359 2 11 16 18 17 19 24 28 30 30 31 33 32 32 39 41 41 42 45 56 74 106 137 157 160 156 143 141 139 138 142 144 150 156 178 206 198 232 252 252 244 250 235 204 212 234 309 253 262 241 196 192 154 116 109 103 109 136 155 218 172 199 158 170 184 169 197 196 199 208 222
6 8 6 4 11 7 6 358 355 357 4 9 7 3 7 14 20 23 22 25 29 30 30 32 33 35 33 34 46 46 44 46 53 69 91 117 130 129 133 125 126 137 149 146 143 145 153 159 173 251 16 93 31 17 49 29 250 177 228 245 213 273 278 249 208 200 188 147 130 110 99 116 147 264 216 181 148 173 183 197 188 203 201 207 213
3 0 0 4 8 13 2 4 6 8 13 15 11 8 11 16 24 28 29 31 33 32 32 34 36 35 31 37 51 53 52 56 68 83 100 114 119 122 120 126 127 129 133 141 135 129 135 135 109 60 69 80 69 57 67 78 76 73 70 52 286 310 273 244 205 195 193 177 157 138 112 106 285 31 33 99 107 199 204 198 212 219 215 216 214
3 2 1 4 4 8 20 14 13 13 18 19 16 13 14 21 29 34 35 35 36 37 36 37 38 39 38 47 60 62 65 71 81 92 104 111 115 123 130 123 125 123 126 133 120 103 109 106 95 93 95 93 79 70 69 68 71 69 62 52 63 8 335 219 243 198 186 188 186 179 169 171 243 19 57 94 115 202 215 201 224 227 232 228 223
5 7 5 2 359 10 32 30 26 14 21 22 21 18 21 28 38 42 40 40 42 43 42 43 45 48 52 63 71 76 79 85 93 100 106 108 110 112 114 120 115 112 110 114 111 100 93 96 96 95 92 88 83 77 74 73 71 70 69 69 70 61 18 49 243 218 192 199 198 194 204 207 195 14 5 13 354 18 306 222 218 225 230 233 232
6 8 6 1 11 21 33 36 29 33 37 34 29 29 34 39 47 51 47 47 49 50 50 52 56 60 67 75 81 85 92 97 99 104 104 105 107 112 107 110 113 107 107 105 106 97 95 93 94 94 91 90 88 85 81 76 71 72 65 68 73 69 43 57 62 103 207 203 204 214 213 220 199 181 287 310 337 304 312 256 226 235 225 233 235
6 8 5 5 18 24 33 49 49 44 42 60 62 50 44 50 55 58 57 54 57 61 62 65 67 71 77 83 86 93 100 100 102 102 104 104 106 102 107 103 108 111 109 106 104 101 99 96 94 94 96 98 99 102 95 82 77 75 67 67 58 59 58 70 65 68 81 118 209 228 234 229 209 212 212 195 247 287 283 260 249 249 243 236 234
5 9 8 18 30 30 47 51 67 48 57 66 66 62 57 58 62 64 63 63 65 71 74 75 76 80 83 87 91 96 99 100 101 102 103 105 108 112 112 111 112 111 111 110 106 103 99 97 96 90 96 103 119 114 112 99 82 79 81 58 70 56 60 64 59 59 61 94 125 247 262 252 240 253 244 221 239 228 266 264 257 245 247 224 231
6 11 15 30 31 34 38 56 62 57 62 70 77 74 73 65 71 69 68 70 75 80 83 82 83 86 88 90 94 99 104 105 103 107 104 106 112 109 113 112 116 116 116 115 112 104 99 100 93 86 80 82 54 75 72 83 87 83 78 73 58 61 63 60 59 54 56 60 72 71 288 299 279 284 249 221 218 191 203 238 263 237 233 225 219
2 13 24 38 45 53 41 47 58 58 70 85 94 90 86 77 82 82 83 84 87 90 94 97 92 96 91 97 102 105 105 107 108 109 108 110 108 116 115 118 119 121 124 123 118 115 109 104 97 94 92 85 55 62 59 67 67 87 78 72 64 62 63 63 59 56 56 57 61 41 14 356 336 291 263 217 198 184 194 185 253 234 235 197 213
2 17 33 38 62 64 49 50 59 66 69 83 96 92 86 89 87 91 96 92 97 99 103 101 101 100 102 105 108 109 108 108 108 110 112 111 110 114 115 122 127 130 131 127 130 128 124 114 110 105 89 79 68 65 67 65 59 50 62 65 64 64 64 61 59 55 56 57 60 37 58 47 21 337 320 31 196 170 172 161 243 258 257 238 194
2 20 33 51 54 60 48 59 63 65 78 91 96 94 93 93 96 99 102 104 105 107 106 105 106 105 108 110 111 111 109 108 108 105 104 105 104 102 109 107 108 116 127 109 110 117 109 94 96 94 80 79 74 72 65 57 56 60 64 66 68 66 65 58 56 53 54 42 56 14 33 46 34 13 335 76 89 108 152 179 179 244 260 243 232
2 18 45 44 46 55 60 68 73 76 80 92 95 95 96 99 101 103 106 110 110 111 111 108 109 109 109 112 111 112 110 109 107 106 107 109 109 106 103 104 105 104 113 108 102 102 99 99 90 88 87 88 86 82 78 66 49 51 59 70 69 70 63 54 55 56 51 40 33 15 21 24 24 11 20 81 104 66 53 160 119 210 295 291 277
3 24 41 36 33 48 63 84 79 83 86 97 98 100 98 102 104 107 109 113 114 115 115 115 115 112 113 113 115 111 110 108 106 106 106 106 104 103 101 101 102 101 102 99 96 98 97 94 95 95 94 97 120 117 103 84 61 44 42 52 60 61 62 56 52 51 53 44 21 13 28 17 6 7 19 23 60 96 75 55 234 203 139 301 306
6 32 29 45 31 42 65 86 89 91 88 97 105 106 102 107 109 110 112 115 118 117 118 120 119 117 115 116 114 113 111 110 107 106 105 104 103 102 103 102 101 100 97 94 94 93 93 93 93 93 98 119 92 82 91 90 80 64 41 39 44 52 53 50 48 45 47 43 24 0 24 26 10 11 26 10 359 80 67 66 305 77 118 89 326
6 20 23 28 29 37 77 89 96 96 97 101 105 107 109 109 112 116 116 121 121 120 123 124 123 118 117 118 116 116 115 111 111 107 104 103 102 104 105 103 103 99 98 90 84 83 79 79 81 83 78 51 67 73 66 85 80 80 71 37 39 43 45 44 44 44 39 38 38 5 23 24 16 27 33 8 345 34 36 15 46 17 43 118 119
19 22 18 21 28 45 74 92 95 93 104 105 106 113 115 116 117 118 119 121 121 124 127 127 122 120 118 115 114 114 115 116 113 110 109 105 105 104 103 102 100 100 99 91 85 82 77 77 77 76 60 63 62 64 70 67 73 72 84 44 31 28 38 39 39 38 37 36 34 7 20 21 23 25 44 6 357 41 29 12 31 11 38 34 49
33 24 12 24 39 57 68 82 95 105 108 108 116 115 119 118 120 123 124 124 123 126 126 125 123 121 120 117 115 116 117 118 115 113 110 107 106 105 100 95 95 92 89 87 77 70 68 67 63 59 56 53 56 48 49 49 56 64 69 71 46 34 21 35 33 34 31 31 30 7 10 18 20 354 44 15 350 21 35 25 29 27 30 24 29
43 41 28 25 55 67 81 96 99 105 112 110 114 116 120 121 123 125 127 126 125 127 124 123 124 123 124 121 117 115 117 116 115 112 109 106 105 104 102 99 92 88 84 79 62 57 49 43 45 42 35 29 30 36 44 43 36 40 46 50 36 40 13 17 30 26 28 26 26 14 360 4 19 24 26 11 357 7 21 27 35 33 38 28 29
54 54 51 39 53 63 87 100 106 112 114 114 120 122 123 124 126 129 126 126 125 125 123 121 122 123 123 121 117 117 115 115 112 109 106 105 103 102 101 96 90 80 70 67 60 29 21 11 21 28 19 20 22 19 24 35 24 9 21 10 9 25 17 3 30 19 29 20 22 16 16 2 9 17 9 11 8 2 9 14 28 47 40 37 25
94 62 51 46 51 71 102 106 106 110 110 113 124 126 130 130 131 130 130 129 125 123 122 121 121 122 122 118 119 116 114 113 110 105 103 102 97 94 89 82 75 66 54 46 42 24 9 8 357 3 5 9 12 0 348 349 6 340 7 338 349 344 350 357 350 13 34 14 13 18 16 4 4 348 9 12 12 8 10 9 20 31 43 39 24
119 119 63 56 78 116 126 127 113 107 110 121 130 133 133 137 138 136 133 129 128 125 122 124 123 123 121 116 114 112 110 110 108 103 100 95 87 80 75 71 62 51 39 28 33 23 20 23 18 26 14 11 354 338 313 292 4 347 322 302 317 312 338 342 332 336 17 15 1 7 5 1 356 360 357 0 7 9 11 16 21 28 28 17 6
147 138 82 68 59 94 126 131 120 107 117 123 128 131 136 138 138 137 134 128 129 125 124 125 124 123 122 120 111 109 106 105 102 101 93 87 80 72 65 61 49 41 38 28 34 29 24 30 33 46 37 14 354 327 316 333 295 302 280 292 300 301 313 322 326 326 351 357 355 342 351 353 350 356 360 352 1 7 10 16 21 28 29 12 356
116 140 144 116 63 83 97 108 110 108 117 123 128 132 133 135 139 137 135 127 129 127 128 127 128 127 126 125 114 108 106 100 95 88 84 74 69 67 63 55 41 40 36 33 37 37 28 31 32 43 38 15 347 343 334 320 345 309 290 295 298 291 302 308 327 318 316 339 327 326 335 339 341 345 345 344 348 352 7 16 25 29 29 15 348
122 139 140 130 81 66 81 101 105 105 113 119 127 129 133 132 131 132 128 125 126 130 132 131 132 132 130 127 120 110 104 95 85 73 67 63 60 63 63 50 40 40 37 38 44 43 42 41 29 25 27 17 6 348 339 329 314 288 300 294 295 289 294 294 302 295 303 309 314 317 321 320 322 329 339 336 341 344 356 15 21 31 35 24 350
122 129 141 129 63 89 120 121 134 115 121 127 126 125 128 128 130 132 128 127 127 137 139 137 135 136 134 129 122 113 104 90 75 60 56 57 59 62 60 43 38 36 37 40 47 46 47 49 41 20 20 20 16 5 2 340 320 322 305 nan 292 297 292 288 289 291 290 301 301 294 300 305 311 313 319 324 328 340 344 355 9 16 39 28 1
150 134 141 126 88 97 139 117 119 120 127 118 119 118 123 132 137 133 132 129 131 138 142 140 138 136 130 127 120 112 101 84 67 50 49 51 53 53 48 36 33 31 33 38 40 43 45 40 39 24 13 17 13 2 349 349 348 338 323 295 293 299 298 291 296 293 299 297 287 290 300 299 303 309 310 318 322 325 332 333 344 354 3 1 14
157 163 144 91 37 40 87 112 104 126 145 123 126 130 136 140 137 138 133 129 130 136 137 138 140 135 129 124 119 111 99 86 67 51 47 49 53 48 41 31 28 27 30 35 37 40 35 31 27 28 24 12 2 353 344 348 nan nan 314 311 302 303 300 301 nan nan 305 305 293 292 297 301 300 297 297 301 303 310 318 324 332 336 336 336 352
153 159 146 71 33 41 45 54 67 74 167 149 153 151 150 147 143 134 132 136 132 133 135 136 137 136 130 125 120 112 99 84 70 52 47 46 49 46 37 33 28 27 29 34 41 46 37 36 29 29 40 35 14 3 348 nan 336 327 317 323 323 313 313 310 308 nan 313 304 300 298 296 299 297 296 296 295 296 300 307 312 317 320 322 322 331
129 146 110 82 39 39 50 59 74 69 116 150 174 164 164 161 154 136 142 145 140 134 134 140 143 147 142 134 125 115 99 80 63 48 45 43 43 39 36 34 26 26 27 30 33 37 36 35 41 50 47 49 40 30 14 19 nan nan 338 333 334 339 330 333 337 327 323 313 312 309 301 297 293 293 294 295 297 299 301 302 303 302 305 311 313
134 110 116 119 69 54 64 47 68 43 77 72 147 156 177 172 155 162 147 154 147 147 148 156 161 154 150 135 121 110 88 70 52 37 34 35 37 37 37 33 29 24 22 27 37 41 41 45 54 61 53 41 45 38 36 46 nan 24 16 5 nan nan 344 349 345 328 326 325 327 322 308 299 291 291 291 293 296 296 294 293 292 292 294 297 301
161 134 93 60 107 91 59 40 69 63 74 56 55 81 174 193 165 172 168 159 170 167 167 172 169 157 139 125 112 95 68 59 40 29 24 27 28 34 37 32 28 25 27 37 44 48 44 50 57 55 54 54 45 37 37 40 44 nan nan nan 5 nan nan nan nan 340 336 333 335 331 320 313 303 295 296 291 291 293 296 296 297 296 296 293 293
142 116 86 87 139 71 64 50 99 72 79 55 28 13 307 261 187 173 173 171 176 183 180 166 163 165 146 123 99 76 59 47 34 21 20 22 24 30 33 31 29 23 26 42 51 50 46 49 49 47 41 49 46 34 30 32 33 44 36 27 nan nan nan 3 nan 357 1 352 346 345 332 335 318 307 301 295 292 294 297 298 300 300 299 298 297
90 96 93 92 113 122 110 107 124 100 80 50 22 4 341 329 288 175 152 165 171 173 164 161 176 167 106 137 154 42 33 29 23 18 17 17 20 25 28 27 26 19 19 38 51 47 45 42 36 36 34 29 37 31 23 20 23 23 30 36 34 nan nan 11 23 8 9 8 1 360 353 355 340 328 318 310 303 299 299 298 302 304 304 302 299
83 117 119 111 103 124 109 85 99 98 68 44 15 3 347 326 335 340 298 194 179 181 198 204 212 226 232 252 258 311 355 9 17 12 12 14 16 19 19 22 23 18 10 29 44 44 42 36 25 22 27 19 16 23 23 14 7 13 16 20 19 18 nan 4 nan 359 6 4 11 10 4 5 2 355 345 336 320 312 303 303 306 306 307 308 306
79 115 120 126 99 96 99 74 123 96 30 1 359 349 335 326 322 332 318 301 130 210 238 237 234 238 253 283 274 304 331 352 5 2 7 8 10 13 10 9 20 13 3 13 37 40 37 28 23 22 18 15 14 21 22 13 13 5 7 8 7 3 3 9 5 nan 3 nan 0 6 8 5 7 6 nan nan nan nan 321 316 312 312 311 311 312
87 93 106 123 123 124 145 125 105 58 337 341 338 340 318 306 307 313 306 263 242 217 230 233 238 247 262 265 284 298 313 337 350 354 356 2 3 7 3 12 32 35 23 12 29 31 27 22 18 15 16 14 13 16 15 11 13 8 0 1 0 359 356 357 351 356 nan nan nan 353 356 351 1 3 1 1 352 344 343 334 323 319 317 314 313
83 101 121 158 160 173 156 59 56 106 305 339 331 333 325 292 299 315 325 282 267 238 237 244 248 256 268 279 278 286 305 320 333 340 343 352 358 358 356 5 21 24 11 355 4 14 18 23 22 20 16 15 6 8 11 8 4 4 1 352 352 349 349 347 nan nan nan nan nan nan nan 351 356 354 352 358 357 352 346 338 334 331 323 319 317
84 91 113 137 165 179 152 49 54 146 75 2 343 345 336 323 320 328 328 313 303 280 263 256 254 260 268 280 284 287 294 306 311 318 335 346 351 351 357 3 4 1 360 335 357 3 6 15 20 17 14 13 4 3 7 5 356 354 357 357 359 358 356 nan nan nan nan nan nan nan nan nan nan nan 342 347 348 350 344 341 341 nan 327 324 321